| time (UTC) | temp F | wind direction | speed knots | gust knots | rain 1hr in | rain 24hr in | rain mn in | humidity % | barometer mb |
| 20260506033637 | 64 | 90 | 0.0 | 1.7 | 0.00 | 0.00 | 0.00 | 93 | 1013.1 |
| 20260506033126 | 64 | 113 | 0.0 | 1.7 | 0.00 | 0.00 | 0.00 | 93 | 1013.1 |
| 20260506032617 | 64 | 68 | 0.0 | 5.2 | 0.00 | 0.00 | 0.00 | 93 | 1013.1 |
| 20260506032107 | 64 | 270 | 0.0 | 5.2 | 0.00 | 0.00 | 0.00 | 92 | 1013.1 |
| 20260506031556 | 64 | 270 | 0.9 | 3.5 | 0.00 | 0.00 | 0.00 | 92 | 1013.0 |
| 20260506031046 | 64 | 180 | 1.7 | 3.5 | 0.00 | 0.00 | 0.00 | 92 | 1013.0 |
| 20260506030801 | 64 | 180 | 0.0 | 3.5 | 0.00 | 0.00 | 0.00 | 92 | 1013.2 |
| 20260506030025 | 65 | 248 | 0.9 | 3.5 | 0.00 | 0.00 | 0.00 | 92 | 1013.3 |
| 20260506025516 | 65 | 135 | 0.9 | 3.5 | 0.00 | 0.00 | 0.00 | 92 | 1013.4 |
| 20260506025006 | 65 | 158 | 0.9 | 3.5 | 0.00 | 0.00 | 0.00 | 92 | 1013.6 |
| 20260506024720 | 65 | 158 | 0.0 | 3.5 | 0.00 | 0.00 | 0.00 | 91 | 1013.5 |
| 20260506023435 | 65 | 315 | 0.0 | 3.5 | 0.00 | 0.00 | 0.00 | 91 | 1013.5 |
| 20260506022925 | 65 | 270 | 1.7 | 3.5 | 0.00 | 0.00 | 0.00 | 91 | 1013.7 |
| 20260506022415 | 65 | 180 | 0.9 | 3.5 | 0.00 | 0.00 | 0.00 | 91 | 1013.6 |
| 20260506021905 | 65 | 180 | 0.0 | 1.7 | 0.00 | 0.00 | 0.00 | 91 | 1013.7 |
| 20260506021105 | 65 | 135 | 0.0 | 5.2 | 0.00 | 0.00 | 0.00 | 91 | 1013.6 |
| 20260506020334 | 65 | 203 | 1.7 | 5.2 | 0.00 | 0.00 | 0.00 | 91 | 1013.6 |
| 20260506015824 | 65 | 248 | 1.7 | 3.5 | 0.00 | 0.00 | 0.00 | 91 | 1013.4 |
| 20260506015315 | 65 | 135 | 0.0 | 1.7 | 0.00 | 0.00 | 0.00 | 91 | 1013.5 |
| 20260506014805 | 65 | 158 | 0.9 | 3.5 | 0.00 | 0.00 | 0.00 | 90 | 1013.4 |
| 20260506014254 | 65 | 180 | 0.9 | 5.2 | 0.00 | 0.00 | 0.00 | 90 | 1013.4 |
| 20260506013744 | 65 | 113 | 1.7 | 5.2 | 0.00 | 0.00 | 0.00 | 90 | 1013.5 |
| 20260506013234 | 65 | 293 | 0.0 | 3.5 | 0.00 | 0.00 | 0.00 | 90 | 1013.5 |
| 20260506012946 | 65 | 203 | 0.9 | 3.5 | 0.00 | 0.00 | 0.00 | 91 | 1013.2 |
| 20260506012214 | 65 | 158 | 0.0 | 1.7 | 0.00 | 0.00 | 0.00 | 91 | 1013.0 |
| 20260506011706 | 65 | 180 | 0.0 | 3.5 | 0.00 | 0.00 | 0.00 | 90 | 1013.3 |
| 20260506011154 | 65 | 113 | 1.7 | 3.5 | 0.00 | 0.00 | 0.00 | 90 | 1013.1 |
| 20260506010644 | 65 | 113 | 0.9 | 3.5 | 0.00 | 0.00 | 0.00 | 90 | 1013.2 |
| 20260506005623 | 65 | 113 | 0.0 | 6.1 | 0.00 | 0.00 | 0.00 | 90 | 1012.9 |
| 20260506005113 | 65 | 135 | 1.7 | 6.1 | 0.00 | 0.00 | 0.00 | 90 | 1013.2 |
| 20260506004825 | 65 | 113 | 3.5 | 5.2 | 0.00 | 0.00 | 0.00 | 91 | 1013.4 |
| 20260506004053 | 65 | 113 | 2.6 | 5.2 | 0.00 | 0.00 | 0.00 | 91 | 1013.4 |
| 20260506003812 | 65 | 113 | 1.7 | 5.2 | 0.00 | 0.00 | 0.00 | 91 | 1013.4 |
| 20260506003032 | 65 | 180 | 1.7 | 3.5 | 0.00 | 0.00 | 0.00 | 91 | 1013.6 |
| 20260506002522 | 65 | 135 | 1.7 | 6.1 | 0.00 | 0.00 | 0.00 | 91 | 1013.3 |
| 20260506002012 | 65 | 203 | 1.7 | 6.1 | 0.00 | 0.00 | 0.00 | 91 | 1013.4 |
| 20260506001502 | 65 | 248 | 0.0 | 7.8 | 0.00 | 0.00 | 0.00 | 91 | 1013.5 |
| 20260506000952 | 65 | 203 | 2.6 | 7.8 | 0.00 | 0.00 | 0.00 | 91 | 1013.5 |
| 20260506000710 | 66 | 135 | 0.9 | 5.2 | 0.00 | 0.00 | 0.00 | 90 | 1013.6 |
| 20260505235932 | 66 | 135 | 0.9 | 3.5 | 0.00 | 0.00 | 0.00 | 90 | 1013.8 |
| 20260505235421 | 66 | 203 | 0.0 | 3.5 | 0.00 | 0.00 | 0.00 | 90 | 1013.7 |
| 20260505234911 | 66 | 158 | 0.0 | 1.7 | 0.00 | 0.00 | 0.00 | 90 | 1013.8 |
| 20260505234401 | 66 | 158 | 0.0 | 5.2 | 0.00 | 0.00 | 0.00 | 90 | 1013.5 |
| 20260505233851 | 66 | 90 | 0.9 | 5.2 | 0.00 | 0.00 | 0.00 | 89 | 1013.5 |
| 20260505233342 | 67 | 225 | 0.9 | 5.2 | 0.00 | 0.00 | 0.00 | 89 | 1013.4 |
| 20260505232832 | 67 | 225 | 0.9 | 5.2 | 0.00 | 0.00 | 0.00 | 89 | 1013.6 |
| 20260505232321 | 67 | 203 | 0.0 | 5.2 | 0.00 | 0.00 | 0.00 | 88 | 1013.4 |
| 20260505231811 | 67 | 158 | 0.0 | 5.2 | 0.00 | 0.00 | 0.00 | 88 | 1013.4 |
| 20260505231017 | 67 | 158 | 0.0 | 3.5 | 0.00 | 0.00 | 0.00 | 88 | 1013.6 |
| 20260505230241 | 67 | 203 | 0.0 | 3.5 | 0.00 | 0.00 | 0.00 | 88 | 1013.5 |
| 20260505225731 | 67 | 135 | 0.0 | 3.5 | 0.00 | 0.00 | 0.00 | 88 | 1013.5 |
| 20260505225220 | 67 | 90 | 0.9 | 6.1 | 0.00 | 0.00 | 0.00 | 88 | 1013.4 |
| 20260505224932 | 67 | 90 | 0.9 | 6.1 | 0.00 | 0.00 | 0.00 | 88 | 1013.3 |
| 20260505224202 | 67 | 113 | 1.7 | 5.2 | 0.00 | 0.00 | 0.00 | 88 | 1013.0 |
| 20260505223907 | 67 | 113 | 3.5 | 6.1 | 0.00 | 0.00 | 0.00 | 88 | 1013.1 |
| 20260505223141 | 67 | 113 | 0.0 | 6.1 | 0.00 | 0.00 | 0.00 | 88 | 1013.1 |
| 20260505222630 | 67 | 135 | 0.9 | 5.2 | 0.00 | 0.00 | 0.00 | 88 | 1013.0 |
| 20260505222120 | 68 | 158 | 3.5 | 5.2 | 0.00 | 0.00 | 0.00 | 87 | 1012.9 |
| 20260505221611 | 68 | 90 | 0.0 | 3.5 | 0.00 | 0.00 | 0.00 | 87 | 1012.9 |
| 20260505221059 | 68 | 90 | 1.7 | 3.5 | 0.00 | 0.00 | 0.00 | 87 | 1013.0 |
| 20260505220550 | 68 | 203 | 0.0 | 5.2 | 0.00 | 0.00 | 0.00 | 87 | 1013.0 |
| 20260505220305 | 68 | 135 | 0.9 | 5.2 | 0.00 | 0.00 | 0.00 | 87 | 1013.2 |
| 20260505215748 | 68 | 135 | 0.9 | 5.2 | 0.00 | 0.00 | 0.00 | 87 | 1013.1 |
| 20260505215245 | 68 | 158 | 0.9 | 3.5 | 0.00 | 0.00 | 0.00 | 86 | 1013.0 |
| 20260505214509 | 68 | 113 | 0.0 | 3.5 | 0.00 | 0.00 | 0.00 | 86 | 1013.1 |
| 20260505213959 | 68 | 158 | 0.0 | 3.5 | 0.00 | 0.00 | 0.00 | 86 | 1012.8 |
| 20260505212939 | 69 | 135 | 0.0 | 1.7 | 0.00 | 0.00 | 0.00 | 86 | 1013.0 |
| 20260505212429 | 69 | 180 | 0.9 | 1.7 | 0.00 | 0.00 | 0.00 | 86 | 1012.9 |
| 20260505212144 | 69 | 68 | 0.0 | 3.5 | 0.00 | 0.00 | 0.00 | 85 | 1012.9 |
| 20260505211408 | 69 | 135 | 0.9 | 3.5 | 0.00 | 0.00 | 0.00 | 85 | 1012.7 |
| 20260505210858 | 69 | 90 | 0.0 | 1.7 | 0.00 | 0.00 | 0.00 | 85 | 1012.6 |
| 20260505210348 | 69 | 135 | 0.0 | 1.7 | 0.00 | 0.00 | 0.00 | 84 | 1012.4 |
| 20260505205838 | 70 | 158 | 0.0 | 3.5 | 0.00 | 0.00 | 0.00 | 84 | 1012.3 |
| 20260505205328 | 70 | 158 | 0.0 | 3.5 | 0.00 | 0.00 | 0.00 | 84 | 1012.5 |
| 20260505204817 | 70 | 135 | 1.7 | 3.5 | 0.00 | 0.00 | 0.00 | 84 | 1012.6 |
| 20260505204307 | 70 | 135 | 0.0 | 3.5 | 0.00 | 0.00 | 0.00 | 84 | 1012.4 |
| 20260505203757 | 70 | 158 | 0.9 | 3.5 | 0.00 | 0.00 | 0.00 | 84 | 1012.4 |
| 20260505202737 | 70 | 180 | 0.0 | 1.7 | 0.00 | 0.00 | 0.00 | 83 | 1012.7 |
| 20260505202445 | 70 | 113 | 0.0 | 1.7 | 0.00 | 0.00 | 0.00 | 84 | 1012.5 |
| 20260505201717 | 70 | 0 | 0.0 | 1.7 | 0.00 | 0.00 | 0.00 | 84 | 1012.6 |
| 20260505201208 | 70 | 135 | 0.0 | 3.5 | 0.00 | 0.00 | 0.00 | 84 | 1012.5 |
| 20260505200657 | 70 | 158 | 0.0 | 3.5 | 0.00 | 0.00 | 0.00 | 83 | 1012.5 |
| 20260505200146 | 70 | 135 | 0.0 | 3.5 | 0.00 | 0.00 | 0.00 | 83 | 1012.4 |
| 20260505195636 | 71 | 158 | 0.0 | 1.7 | 0.00 | 0.00 | 0.00 | 83 | 1012.7 |
| 20260505195127 | 71 | 135 | 0.0 | 1.7 | 0.00 | 0.00 | 0.00 | 83 | 1012.7 |
| 20260505194837 | 71 | 203 | 0.0 | 3.5 | 0.00 | 0.00 | 0.00 | 83 | 1012.8 |
| 20260505194106 | 71 | 90 | 0.9 | 3.5 | 0.00 | 0.00 | 0.00 | 83 | 1012.6 |
| 20260505193556 | 71 | 203 | 1.7 | 3.5 | 0.00 | 0.00 | 0.00 | 83 | 1012.7 |
| 20260505193047 | 71 | 135 | 0.0 | 1.7 | 0.00 | 0.00 | 0.00 | 83 | 1012.8 |
| 20260505192535 | 71 | 180 | 0.0 | 5.2 | 0.00 | 0.00 | 0.00 | 83 | 1012.8 |
| 20260505192025 | 71 | 158 | 0.0 | 5.2 | 0.00 | 0.00 | 0.00 | 83 | 1012.7 |
| 20260505191517 | 71 | 135 | 0.0 | 3.5 | 0.00 | 0.00 | 0.00 | 83 | 1012.8 |
| 20260505191231 | 71 | 135 | 0.9 | 3.5 | 0.00 | 0.00 | 0.00 | 82 | 1012.6 |
| 20260505190456 | 71 | 23 | 0.0 | 1.7 | 0.00 | 0.00 | 0.00 | 82 | 1012.6 |
| 20260505185945 | 71 | 90 | 0.0 | 1.7 | 0.00 | 0.00 | 0.00 | 82 | 1012.6 |
| 20260505185435 | 71 | 135 | 0.0 | 3.5 | 0.00 | 0.00 | 0.00 | 82 | 1012.5 |
| 20260505184925 | 72 | 203 | 0.0 | 3.5 | 0.00 | 0.00 | 0.00 | 81 | 1012.9 |
| 20260505184415 | 72 | 180 | 0.0 | 1.7 | 0.00 | 0.00 | 0.00 | 82 | 1012.9 |
| 20260505183904 | 71 | 225 | 0.0 | 3.5 | 0.00 | 0.00 | 0.00 | 82 | 1012.7 |
| 20260505182844 | 72 | 203 | 0.0 | 1.7 | 0.00 | 0.00 | 0.00 | 81 | 1012.9 |
| 20260505182334 | 72 | 135 | 0.0 | 1.7 | 0.00 | 0.00 | 0.00 | 81 | 1012.9 |
| 20260505182043 | 72 | 135 | 0.0 | 0.0 | 0.00 | 0.00 | 0.00 | 80 | 1013.0 |
| 20260505181314 | 72 | 135 | 0.0 | 0.0 | 0.00 | 0.00 | 0.00 | 81 | 1013.2 |
| 20260505181026 | 72 | 0 | 0.0 | 0.0 | 0.00 | 0.00 | 0.00 | 81 | 1013.1 |
| 20260505180254 | 72 | 0 | 0.0 | 0.0 | 0.00 | 0.00 | 0.00 | 80 | 1013.3 |
| 20260505175744 | 72 | 338 | 0.0 | 0.0 | 0.00 | 0.00 | 0.00 | 80 | 1013.2 |
| 20260505175236 | 72 | 135 | 0.0 | 0.0 | 0.00 | 0.00 | 0.00 | 81 | 1013.3 |
| 20260505174724 | 72 | 180 | 0.0 | 0.0 | 0.00 | 0.00 | 0.00 | 81 | 1013.2 |
| 20260505174214 | 72 | 158 | 0.0 | 0.0 | 0.00 | 0.00 | 0.00 | 81 | 1013.1 |
| 20260505173925 | 72 | 158 | 0.0 | 0.0 | 0.00 | 0.00 | 0.00 | 81 | 1013.3 |
| 20260505173153 | 72 | 180 | 0.0 | 0.0 | 0.00 | 0.00 | 0.00 | 81 | 1013.5 |
| 20260505172643 | 71 | 203 | 0.0 | 0.0 | 0.00 | 0.00 | 0.00 | 81 | 1013.3 |
| 20260505172133 | 71 | 180 | 0.0 | 0.0 | 0.00 | 0.00 | 0.00 | 81 | 1013.3 |
| 20260505171848 | 72 | 203 | 0.0 | 0.0 | 0.00 | 0.00 | 0.00 | 81 | 1013.1 |
| 20260505170604 | 72 | 225 | 0.0 | 0.0 | 0.00 | 0.00 | 0.00 | 80 | 1013.3 |
| 20260505170053 | 72 | 203 | 0.0 | 0.0 | 0.00 | 0.00 | 0.00 | 81 | 1013.4 |
| 20260505165543 | 72 | 225 | 0.0 | 0.0 | 0.00 | 0.00 | 0.00 | 81 | 1013.5 |
| 20260505165034 | 72 | 225 | 0.0 | 0.0 | 0.00 | 0.00 | 0.00 | 82 | 1013.4 |
| 20260505164750 | 71 | 248 | 0.0 | 1.7 | 0.00 | 0.00 | 0.00 | 82 | 1013.5 |
| 20260505164012 | 71 | 68 | 0.0 | 3.5 | 0.00 | 0.00 | 0.00 | 83 | 1013.6 |
| 20260505163502 | 70 | 158 | 0.0 | 3.5 | 0.00 | 0.00 | 0.00 | 83 | 1013.5 |
| 20260505163212 | 70 | 23 | 0.0 | 3.5 | 0.00 | 0.00 | 0.00 | 84 | 1013.4 |
| 20260505162659 | 70 | 315 | 0.0 | 3.5 | 0.00 | 0.00 | 0.00 | 84 | 1013.5 |
| 20260505162156 | 70 | 68 | 0.0 | 3.5 | 0.00 | 0.00 | 0.00 | 84 | 1013.7 |
| 20260505161648 | 70 | 135 | 0.0 | 3.5 | 0.00 | 0.00 | 0.00 | 83 | 1013.6 |
| 20260505160912 | 70 | 45 | 0.9 | 3.5 | 0.00 | 0.00 | 0.00 | 83 | 1013.9 |
| 20260505160402 | 71 | 68 | 0.9 | 3.5 | 0.00 | 0.00 | 0.00 | 82 | 1013.8 |
| 20260505153301 | 72 | 90 | 0.0 | 3.5 | 0.00 | 0.00 | 0.00 | 78 | 1013.9 |
| 20260505152751 | 73 | 45 | 0.0 | 3.5 | 0.00 | 0.00 | 0.00 | 77 | 1014.0 |
| 20260505152241 | 73 | 90 | 0.0 | 3.5 | 0.00 | 0.00 | 0.00 | 76 | 1013.9 |
| 20260505151954 | 73 | 68 | 0.0 | 1.7 | 0.00 | 0.00 | 0.00 | 76 | 1013.8 |
| 20260505151220 | 73 | 45 | 0.0 | 0.0 | 0.00 | 0.00 | 0.00 | 76 | 1013.9 |
| 20260505150711 | 71 | 135 | 0.0 | 0.0 | 0.00 | 0.00 | 0.00 | 78 | 1013.9 |
| 20260505150200 | 71 | 90 | 0.0 | 1.7 | 0.00 | 0.00 | 0.00 | 79 | 1013.7 |
| 20260505130308 | 63 | 135 | 0.0 | 0.0 | 0.00 | 0.00 | 0.00 | 86 | 1014.3 |
| 20260505124737 | 62 | 180 | 0.0 | 0.0 | 0.00 | 0.00 | 0.00 | 85 | 1014.3 |
| 20260505124227 | 62 | 158 | 0.0 | 0.0 | 0.00 | 0.00 | 0.00 | 86 | 1014.3 |
| 20260505123940 | 62 | 135 | 0.0 | 1.7 | 0.00 | 0.00 | 0.00 | 86 | 1014.3 |
| 20260505123207 | 62 | 158 | 0.0 | 1.7 | 0.00 | 0.00 | 0.00 | 85 | 1014.1 |
| 20260505122657 | 62 | 135 | 0.0 | 0.0 | 0.00 | 0.00 | 0.00 | 86 | 1014.0 |
| 20260505122147 | 62 | 180 | 0.0 | 0.0 | 0.00 | 0.00 | 0.00 | 86 | 1014.2 |
| 20260505121636 | 62 | 0 | 0.0 | 0.0 | 0.00 | 0.00 | 0.00 | 86 | 1014.0 |
| 20260505121127 | 61 | 68 | 0.0 | 0.0 | 0.00 | 0.00 | 0.00 | 86 | 1014.1 |
| 20260505120616 | 61 | 158 | 0.0 | 0.0 | 0.00 | 0.00 | 0.00 | 86 | 1014.0 |
| 20260505120106 | 61 | 180 | 0.0 | 0.0 | 0.00 | 0.00 | 0.00 | 85 | 1014.1 |
| 20260505115556 | 61 | 135 | 0.0 | 1.7 | 0.00 | 0.00 | 0.00 | 85 | 1014.0 |
| 20260505115310 | 61 | 23 | 0.0 | 1.7 | 0.00 | 0.00 | 0.00 | 85 | 1013.9 |
| 20260505114536 | 61 | 0 | 0.0 | 3.5 | 0.00 | 0.00 | 0.00 | 85 | 1013.7 |
| 20260505114026 | 61 | 23 | 0.0 | 3.5 | 0.00 | 0.00 | 0.00 | 86 | 1013.8 |
| 20260505113520 | 61 | 135 | 0.0 | 1.7 | 0.00 | 0.00 | 0.00 | 86 | 1013.6 |
| 20260505113005 | 60 | 180 | 0.0 | 0.0 | 0.00 | 0.00 | 0.00 | 87 | 1013.5 |
| 20260505112456 | 60 | 158 | 0.0 | 0.0 | 0.00 | 0.00 | 0.00 | 87 | 1013.4 |
| 20260505111945 | 60 | 158 | 0.0 | 0.0 | 0.00 | 0.00 | 0.00 | 87 | 1013.4 |
| 20260505110925 | 60 | 180 | 0.0 | 0.0 | 0.00 | 0.00 | 0.00 | 87 | 1013.2 |
| 20260505110415 | 60 | 180 | 0.0 | 0.0 | 0.00 | 0.00 | 0.00 | 87 | 1013.2 |
| 20260505101956 | 59 | 180 | 0.0 | 0.0 | 0.00 | 0.00 | 0.00 | 86 | 1012.9 |
| 20260505101440 | 59 | 180 | 0.0 | 0.0 | 0.00 | 0.00 | 0.00 | 86 | 1012.9 |
| 20260505100930 | 59 | 180 | 0.0 | 0.0 | 0.00 | 0.00 | 0.00 | 86 | 1012.7 |
| 20260505100420 | 59 | 158 | 0.0 | 0.0 | 0.00 | 0.00 | 0.00 | 86 | 1012.6 |
| 20260505095910 | 59 | 180 | 0.0 | 0.0 | 0.00 | 0.00 | 0.00 | 86 | 1012.7 |
| 20260505095623 | 58 | 158 | 0.0 | 0.0 | 0.00 | 0.00 | 0.00 | 86 | 1012.5 |
| 20260505095114 | 58 | 158 | 0.0 | 0.0 | 0.00 | 0.00 | 0.00 | 86 | 1012.6 |
| 20260505094340 | 58 | 180 | 0.0 | 0.0 | 0.00 | 0.00 | 0.00 | 86 | 1012.6 |
| 20260505094052 | 58 | 180 | 0.0 | 0.0 | 0.00 | 0.00 | 0.00 | 86 | 1012.6 |
| 20260505093321 | 58 | 180 | 0.0 | 0.0 | 0.00 | 0.00 | 0.00 | 86 | 1012.4 |
| 20260505092809 | 58 | 180 | 0.0 | 0.0 | 0.00 | 0.00 | 0.00 | 86 | 1012.6 |
| 20260505092259 | 58 | 180 | 0.0 | 0.0 | 0.00 | 0.00 | 0.00 | 86 | 1012.7 |
| 20260505091749 | 58 | 180 | 0.0 | 0.0 | 0.00 | 0.00 | 0.00 | 86 | 1012.4 |
| 20260505091240 | 58 | 180 | 0.0 | 0.0 | 0.00 | 0.00 | 0.00 | 86 | 1012.4 |
| 20260505090729 | 58 | 180 | 0.0 | 0.0 | 0.00 | 0.00 | 0.00 | 86 | 1012.4 |
| 20260505090219 | 58 | 180 | 0.0 | 0.0 | 0.00 | 0.00 | 0.00 | 86 | 1012.5 |
| 20260505085927 | 58 | 180 | 0.0 | 0.0 | 0.00 | 0.00 | 0.00 | 86 | 1012.6 |
| 20260505085159 | 58 | 180 | 0.0 | 0.0 | 0.00 | 0.00 | 0.00 | 86 | 1012.5 |
| 20260505084911 | 58 | 180 | 0.0 | 0.0 | 0.00 | 0.00 | 0.00 | 86 | 1012.6 |
| 20260505084139 | 57 | 180 | 0.0 | 0.0 | 0.00 | 0.00 | 0.00 | 86 | 1012.4 |
| 20260505083628 | 57 | 180 | 0.0 | 0.0 | 0.00 | 0.00 | 0.00 | 86 | 1012.3 |
| 20260505083119 | 57 | 180 | 0.0 | 0.0 | 0.00 | 0.00 | 0.00 | 87 | 1012.3 |
| 20260505082609 | 57 | 180 | 0.0 | 0.0 | 0.00 | 0.00 | 0.00 | 87 | 1012.3 |
| 20260505082058 | 57 | 180 | 0.0 | 0.0 | 0.00 | 0.00 | 0.00 | 87 | 1012.4 |
| 20260505081548 | 57 | 158 | 0.0 | 0.0 | 0.00 | 0.00 | 0.00 | 87 | 1012.3 |
| 20260505081258 | 57 | 158 | 0.0 | 0.0 | 0.00 | 0.00 | 0.00 | 88 | 1012.4 |
| 20260505080529 | 56 | 180 | 0.0 | 0.0 | 0.00 | 0.00 | 0.00 | 88 | 1012.5 |
| 20260505080017 | 56 | 180 | 0.0 | 0.0 | 0.00 | 0.00 | 0.00 | 88 | 1012.4 |
| 20260505075507 | 56 | 180 | 0.0 | 0.0 | 0.00 | 0.00 | 0.00 | 89 | 1012.4 |
| 20260505074447 | 56 | 180 | 0.0 | 0.0 | 0.00 | 0.00 | 0.00 | 89 | 1012.1 |
| 20260505073938 | 55 | 180 | 0.0 | 0.0 | 0.00 | 0.00 | 0.00 | 89 | 1012.3 |
| 20260505073439 | 55 | 0.0 | 0.0 | 0.00 | 0.00 | 0.00 | 89 | ||
| 20260505071002 | 54 | 180 | 0.0 | 0.0 | 0.00 | 0.00 | 0.00 | 89 | 1012.0 |
| 20260505070452 | 54 | 180 | 0.0 | 0.0 | 0.00 | 0.00 | 0.00 | 89 | 1012.0 |
| 20260505065941 | 54 | 180 | 0.0 | 0.0 | 0.00 | 0.00 | 0.00 | 89 | 1011.9 |
| 20260505065431 | 54 | 158 | 0.0 | 0.0 | 0.00 | 0.00 | 0.00 | 89 | 1012.0 |
| 20260505064921 | 54 | 158 | 0.0 | 0.0 | 0.00 | 0.00 | 0.00 | 89 | 1012.0 |
| 20260505064413 | 54 | 0.0 | 0.0 | 0.00 | 0.00 | 0.00 | 89 | ||
| 20260505063004 | 54 | 180 | 0.0 | 0.0 | 0.00 | 0.00 | 0.00 | 89 | 1012.1 |
| 20260505062455 | 54 | 180 | 0.0 | 0.0 | 0.00 | 0.00 | 0.00 | 89 | 1012.0 |
| 20260505061945 | 54 | 180 | 0.0 | 0.0 | 0.00 | 0.00 | 0.00 | 89 | 1012.2 |
| 20260505061435 | 54 | 180 | 0.0 | 0.0 | 0.00 | 0.00 | 0.00 | 89 | 1012.2 |
| 20260505060924 | 54 | 180 | 0.0 | 0.0 | 0.00 | 0.00 | 0.00 | 89 | 1011.9 |
| 20260505060414 | 54 | 180 | 0.0 | 0.0 | 0.00 | 0.00 | 0.00 | 89 | 1012.0 |
| 20260505060130 | 54 | 180 | 0.0 | 0.0 | 0.00 | 0.00 | 0.00 | 89 | 1012.0 |
| 20260505055355 | 54 | 180 | 0.0 | 0.0 | 0.00 | 0.00 | 0.00 | 89 | 1012.0 |
| 20260505055109 | 53 | 180 | 0.0 | 0.0 | 0.00 | 0.00 | 0.00 | 88 | 1012.0 |
| 20260505054333 | 53 | 180 | 0.0 | 0.0 | 0.00 | 0.00 | 0.00 | 88 | 1012.2 |
| 20260505053824 | 54 | 180 | 0.0 | 0.0 | 0.00 | 0.00 | 0.00 | 88 | 1012.3 |
| 20260505053314 | 54 | 180 | 0.0 | 0.0 | 0.00 | 0.00 | 0.00 | 87 | 1012.4 |
| 20260505052803 | 54 | 180 | 0.0 | 0.0 | 0.00 | 0.00 | 0.00 | 87 | 1012.4 |
| 20260505052254 | 54 | 180 | 0.0 | 0.0 | 0.00 | 0.00 | 0.00 | 86 | 1012.3 |
| 20260505051744 | 55 | 180 | 0.0 | 0.0 | 0.00 | 0.00 | 0.00 | 86 | 1012.6 |
| 20260505051234 | 55 | 180 | 0.0 | 0.0 | 0.00 | 0.00 | 0.00 | 85 | 1012.4 |
| 20260505050948 | 55 | 180 | 0.0 | 0.0 | 0.00 | 0.00 | 0.00 | 85 | 1012.6 |
| 20260505050212 | 55 | 180 | 0.0 | 0.0 | 0.00 | 0.00 | 0.00 | 85 | 1012.5 |
| 20260505041542 | 55 | 180 | 0.0 | 0.0 | 0.00 | 0.00 | 0.00 | 85 | 1012.1 |
| 20260505041031 | 55 | 180 | 0.0 | 0.0 | 0.00 | 0.00 | 0.00 | 85 | 1012.2 |
| 20260505040522 | 55 | 180 | 0.0 | 0.0 | 0.00 | 0.00 | 0.00 | 84 | 1012.5 |
| 20260505040014 | 55 | 180 | 0.0 | 0.0 | 0.00 | 0.00 | 0.00 | 84 | 1012.3 |
| 20260505035502 | 55 | 180 | 0.0 | 0.0 | 0.00 | 0.00 | 0.00 | 83 | 1012.4 |
| 20260505034951 | 55 | 180 | 0.0 | 0.0 | 0.00 | 0.00 | 0.00 | 82 | 1012.1 |
| 20260505034441 | 56 | 180 | 0.0 | 0.0 | 0.00 | 0.00 | 0.00 | 82 | 1012.2 |